www.pogodaiklimat.ru

Погода и климат >> Архив погоды >> Германия >> Оффенбах


ПОГОДА в Оффенбахе

  • Прогноз погоды в Оффенбахе
  • Монитор погоды в Оффенбахе

АРХИВ ПОГОДЫ в Оффенбахе

Время (UTC), дата Ветер
(напр.,м/с)
 
Видим.   Явления Облачность Т
(С)
Тd
(С)
f
(%)
Тe
(С)
Тes
(С)
Комфортность P
(гПа)
Po
(гПа)
Тmin
(С)
Tmax
(С)
R
(мм)
R24
(мм)
S
(см)
01 10.06 ЮВ 2-4
{4}
30 км в посл. час дождь {морось} 10/0
[]
+17.0 +13.5 80 +17 +17 1015.6 1001.4
02 10.06 Ю 3-4
{5}
26 км 10/10 1500 м
[]
+16.9 +13.4 80 +17 +17 1015.4 1001.2
03 10.06 Ю 2-2
{5}
21 км {дождь, морось} 10/0
[]
+16.1 +13.7 86 +16 +16 1015.3 1001.1 0.0
04 10.06 ЮВ 1-2
{4}
22 км 10/0
[]
+15.9 +13.7 87 +17 +17 1014.8 1000.6
05 10.06 В 2-2
{2}
22 км 9/0
[]
+16.3 +13.8 85 +16 +17 1014.3 1000.1
06 10.06 Ю 2 27 км {дождь, морось} 9/9 420 м
[]
+17.6 +14.0 79 +18 +18 1015.1 1000.9 +14.7 +22.6
07 10.06 ЮЗ 2-5
{6}
50 км 10/0
[]
+18.1 +14.2 78 +19 +22 1015.0 1000.9
08 10.06 ЮЗ 4-7
{7}
60 км в посл. час дождь {морось} 10/0 2000 м
[]
+19.4 +13.3 68 +21 +24 комфорт 1014.6 1000.5
09 10.06 З 3 55 км слаб. дождь {морось} 10/10 720 м
[]
+20.5 +14.2 67 +23 +23 комфорт 1014.2 1000.2 0.0
10 10.06 ЮЗ 3-5
{6}
65 км в посл. час дождь {морось} 10/10 800 м
[]
+20.3 +13.6 65 +23 +23 комфорт 1014.1 1000.1
11 10.06 ЮЗ 2-5
{6}
40 км в посл. час дождь {морось} 9/9 930 м
[]
+22.3 +14.2 60 +26 +27 жарко 1013.0 999.1
12 10.06 ЮЗ 2 50 км {дождь, морось} 10/10 1050 м
[]
+21.5 +14.2 63 +24 +24 комфорт 1012.5 998.6 0.0
13 10.06 ЮЗ 2-4
{5}
55 км в посл. час дождь 10/10 1080 м
[]
+22.0 +13.8 60 +25 +25 комфорт 1012.3 998.4
14 10.06 ЮВ 4-6
{6}
65 км 10/0
[]
+21.7 +13.4 59 +24 +29 комфорт 1012.3 998.4
15 10.06 ЮЗ 2 50 км слаб. дождь 10/10 1500 м
[]
+21.8 +13.4 59 +25 +25 комфорт 1011.1 997.2 0.0
16 10.06 Ю 2-4
{5}
55 км в посл. час дождь {морось} 10/10 1050 м
[]
+20.3 +13.9 67 +23 +23 комфорт 1011.6 997.6
17 10.06 Ю 2-4
{6}
60 км в посл. час дождь {морось} 10/10 1500 м
[]
+20.2 +13.7 66 +23 +23 комфорт 1011.6 997.6
18 10.06 Ю 2 50 км в посл. час дождь {морось} 10/10 1500 м
[]
+19.0 +14.6 76 +21 +21 комфорт 1011.7 997.7 +17.6 +22.7 0.0
19 10.06 ЮЗ 1-2
{4}
50 км в посл. час дождь {морось} 10/10 1500 м
[]
+18.3 +14.2 77 +20 +20 1011.7 997.6
20 10.06 штиль 0-1
{3}
13 км 10/0
[]
+17.1 +14.3 84 +17 +17 1011.4 997.3
21 10.06 ЮЗ 1 45 км {дождь, морось} 10/10 1500 м
[]
+15.9 +13.8 87 +17 +17 1011.2 997.0 0.0
22 10.06 ЮЗ 2-4
{5}
45 км 10/0
[]
+16.4 +13.8 85 +17 +17 1010.7 996.5
23 10.06 Ю 1-2
{4}
35 км 10/0
[]
+16.3 +14.0 86 +17 +17 1011.4 997.2
00 11.06 Ю 1 45 км в посл. час морось {дождь} 10/0 2000 м
[]
+16.0 +14.0 88 +17 +17 1011.3 997.1 0.0
01 11.06 ЮЗ 1-2
{2}
12 км слаб. дождь 9/0 2000 м
[]
+15.5 +14.5 94 +16 +16 1011.0 996.8
02 11.06 Ю 2-5
{5}
10 км слаб. дождь 9/9 1380 м
[]
+15.3 +14.6 96 +15 +15 1011.6 997.4
03 11.06 ЮЗ 2 11 км слаб. дождь 9/9 150 м
[]
+14.8 +14.2 96 +14 +14 1011.6 997.4 6
04 11.06 ЮЗ 3-6
{6}
7000 м дождь 9/9 180 м
[]
+14.2 +13.7 97 +13 +13 1012.5 998.2
05 11.06 З 2-3
{5}
22 км слаб. дождь {морось} 10/10 150 м
[]
+13.9 +13.3 96 +13 +13 1012.2 997.9
06 11.06 ЮЗ 2 21 км в посл. час дождь {морось} 10/10 100 м
[]
+14.5 +13.7 95 +14 +14 1011.9 997.6 +13.8 +19.0 6
07 11.06 ЮЗ 2-3
{4}
28 км 10/10 150 м
[]
+15.1 +13.4 90 +15 +15 1011.7 997.5
08 11.06 СВ 2-3
{3}
45 км 9/9 360 м
[]
+17.1 +13.5 79 +17 +18 1011.4 997.3
09 11.06 В 1 >70 км 9/9 480 м
[]
+17.3 +12.9 75 +18 +20 1011.5 997.4
10 11.06 Ю 2-3
{4}
60 км 8/8 600 м
[]
+18.9 +12.9 68 +20 +24 1011.5 997.4
11 11.06 СВ 1-2
{3}
>70 км 10/10 870 м
[]
+19.3 +12.7 66 +22 +22 комфорт 1011.3 997.3
12 11.06 ЮВ 1-2
{4}
55 км 9/9 1500 м
[]
+20.1 +10.9 55 +23 +25 комфорт 1011.0 997.0
13 11.06 С 2-3
{3}
40 км 9/9 1500 м
[]
+21.1 +11.9 56 +23 +25 комфорт 1010.6 996.7
14 11.06 СЗ 1-2
{4}
>70 км 10/10 1350 м
[]
+20.7 +11.6 56 +24 +24 комфорт 1010.7 996.7
15 11.06 СЗ 2-4
{4}
60 км 10/10 1500 м
[]
+20.8 +12.8 60 +24 +24 комфорт 1010.7 996.7
16 11.06 С 1-2
{3}
60 км 10/10 1500 м
[]
+20.8 +12.4 59 +24 +24 комфорт 1010.6 996.6
17 11.06 СЗ 2-3
{3}
45 км 10/10 1500 м
[]
+21.4 +12.0 55 +24 +24 комфорт 1010.1 996.2
18 11.06 С 2 60 км 10/10 1500 м
[]
+20.9 +12.0 57 +24 +24 комфорт 1010.2 996.3 +14.6 +21.8
19 11.06 С 1-2
{3}
65 км 10/10 1500 м
[]
+20.4 +13.1 63 +24 +24 комфорт 1010.3 996.3
20 11.06 СЗ 1-1
{2}
14 км 10/10 1500 м
[]
+18.7 +14.3 76 +21 +21 комфорт 1010.2 996.2
21 11.06 ЮЗ 1 55 км 10/10 1410 м
[]
+17.8 +14.8 83 +19 +19 1010.1 996.0
22 11.06 З 2-2
{2}
55 км 9/0
[]
+16.2 +14.0 87 +16 +16 1008.8 994.7
23 11.06 В 2-4
{5}
50 км 10/0
[]
+15.7 +13.7 88 +16 +16 1009.8 995.6
00 12.06 Ю 1-1
{5}
40 км 9/9 1500 м
[]
+15.4 +14.1 92 +16 +16 1009.6 995.4
01 12.06 СЗ 2-2
{3}
35 км 10/10 1500 м
[]
+16.8 +14.3 85 +17 +17 1009.2 995.1
02 12.06 СВ 1-2
{3}
27 км 10/10 930 м
[]
+16.6 +14.4 87 +17 +17 1009.3 995.2
03 12.06 С 2-3
{4}
20 км 10/0 2000 м
[]
+16.7 +14.3 86 +17 +17 1008.3 994.2
04 12.06 С 2-3
{4}
14 км 9/0 2000 м
[]
+15.9 +14.0 88 +16 +16 1007.7 993.6
05 12.06 С 2-3
{4}
14 км 10/10 480 м
[]
+16.2 +14.2 88 +16 +16 1007.2 993.1
06 12.06 С 2 14 км 10/10 1500 м
[]
+16.4 +14.1 86 +16 +16 1007.4 993.3 +15.0 +20.9
07 12.06 СВ 2-3
{4}
17 км 10/10 1000 м
[]
+16.8 +14.4 86 +17 +17 1007.2 993.1
08 12.06 СВ 2-3
{3}
6000 м слаб. дождь {морось} 9/9 660 м
[]
+16.6 +15.5 93 +17 +18 1007.1 993.0
09 12.06 ЮЗ 3 3800 м дождь {морось} 10/10 150 м
[]
+16.1 +15.2 94 +16 +16 1008.6 994.5 5
10 12.06 ЮЗ 7-13
{13}
8000 м дождь 10/10 240 м
[]
+13.6 +12.4 92 +11 +11 1010.4 996.1
11 12.06 ЮЗ 1-3
{10}
12 км дождь 10/10 1500 м
[]
+14.0 +13.0 94 +14 +14 1010.8 996.5
12 12.06 ЮЗ 2 55 км в посл. час дождь {морось} 10/10 240 м
[]
+14.9 +13.0 88 +15 +15 1011.5 997.3 5
13 12.06 ЮЗ 2-4
{6}
45 км 6/6 630 м
[]
+17.3 +13.0 76 +18 +24 1011.4 997.3
14 12.06 ЮЗ 3-6
{6}
55 км 8/8 800 м
[]
+19.3 +12.0 63 +21 +23 комфорт 1011.4 997.4
15 12.06 ЮЗ 5-9
{9}
45 км 1/1 1140 м
[]
+20.2 +10.8 55 +22 +26 комфорт 1011.3 997.3
16 12.06 ЮЗ 3-5
{8}
>70 км 1/1 1200 м
[]
+20.0 +10.3 54 +22 +26 комфорт 1011.3 997.3
17 12.06 ЮЗ 3-5
{7}
60 км 3/3 1470 м
[]
+20.2 +9.6 50 +22 +24 комфорт 1011.3 997.3
18 12.06 ЮЗ 2 >70 км ясно +19.9 +9.6 51 +22 +23 комфорт 1011.4 997.4 +13.5 +20.6
19 12.06 Ю 1-2
{4}
65 км ясно +17.4 +10.6 64 +18 +19 1011.9 997.8
20 12.06 ЮВ 1-2
{2}
>70 км 9/0
[]
+14.4 +11.3 82 +15 +15 1012.3 998.0
21 12.06 Ю 2 >70 км 9/0
[]
+14.6 +11.4 81 +14 +14 1012.9 998.6
22 12.06 ЮВ 3-4
{4}
60 км 10/0
[]
+14.9 +11.2 79 +14 +14 1013.3 999.0
23 12.06 Ю 1-2
{4}
45 км 10/0
[]
+13.2 +11.4 89 +13 +13 1013.5 999.1
00 13.06 ЮВ 2 45 км 10/0
[]
+13.0 +11.6 91 +12 +12 1014.2 999.8
01 13.06 ЮВ 1-2
{3}
35 км 10/0
[]
+13.1 +11.5 90 +13 +13 1014.1 999.7
02 13.06 ЮВ 2-3
{4}
30 км в посл. час дождь 10/0 2000 м
[]
+13.3 +11.5 89 +13 +13 1014.3 999.9
03 13.06 ЮЗ 2 27 км {дождь} 10/0 2000 м
[]
+13.1 +11.4 89 +12 +12 1014.2 999.8 0.0
04 13.06 ЮВ 2-4
{5}
30 км 10/0
[]
+13.2 +11.2 88 +12 +13 1014.2 999.8
05 13.06 штиль 0-1
{3}
29 км 4/0
[]
+12.3 +11.2 93 +12 +13 1014.8 1000.4
06 13.06 Ю 2 45 км {дождь} 1/0
[]
+15.8 +11.9 78 +16 +19 1015.0 1000.7 +12.1 +19.8
07 13.06 Ю 3-6
{6}
35 км ясно +17.6 +11.5 67 +18 +23 1014.8 1000.6
08 13.06 ЮЗ 3-5
{6}
35 км 4/0
[]
+18.0 +10.3 61 +18 +25 1015.0 1000.8
09 13.06 Ю 2 30 км 6/6 1140 м
[]
+19.9 +11.3 58 +22 +27 комфорт 1015.0 1000.9
10 13.06 ЮЗ 3-5
{7}
45 км 9/9 1380 м
[]
+20.5 +10.2 52 +22 +24 комфорт 1014.8 1000.8
11 13.06 ЮЗ 2-6
{7}
40 км 8/8 1410 м
[]
+21.0 +10.2 50 +23 +27 комфорт 1014.6 1000.6
12 13.06 Ю 3 50 км 9/9 1470 м
[]
+21.0 +10.9 52 +23 +25 комфорт 1014.3 1000.3
13 13.06 Ю 4-8
{9}
60 км 4/4 1500 м
[]
+22.6 +8.7 41 +24 +30 комфорт 1013.7 999.8
14 13.06 Ю 4-8
{9}
>70 км 1/0 2000 м
[]
+23.2 +8.9 40 +25 +33 комфорт 1013.5 999.6
15 13.06 ЮЗ 4-8
{9}
55 км 1/1 1500 м
[]
+23.8 +8.3 37 +24 +30 комфорт 1013.4 999.5
16 13.06 З 4-7
{9}
55 км 4/0 2000 м
[]
+22.4 +8.8 42 +24 +27 комфорт 1013.7 999.8
17 13.06 ЮЗ 3-6
{7}
50 км 4/0 2000 м
[]
+22.8 +7.5 37 +24 +26 комфорт 1013.6 999.7
18 13.06 З 2 50 км 6/0 2000 м
[]
+23.2 +7.6 37 +24 +25 комфорт 1013.8 999.9 +15.8 +24.6
19 13.06 З 1-3
{5}
50 км ясно +20.6 +8.1 45 +23 +23 комфорт 1014.5 1000.5
20 13.06 ЮВ 1-1
{2}
45 км ясно +16.8 +9.4 62 +18 +18 1015.1 1000.9
21 13.06 ЮВ 1-1
{5}
40 км ясно +14.8 +10.9 77 +15 +15 1015.5 1001.2
22 13.06 В 2-2
{3}
40 км 1/0
[]
+13.7 +10.4 80 +13 +13 1015.7 1001.3
23 13.06 СВ 1-1
{2}
45 км 5/0
[]
+12.5 +10.6 88 +12 +12 1015.9 1001.5
00 14.06 ЮВ 1-1
{5}
40 км 4/0
[]
+11.5 +10.2 92 +11 +11 1015.7 1001.2
01 14.06 В 1-2
{2}
35 км 1/0
[]
+10.5 +9.7 95 +10 +10 1015.6 1001.1
02 14.06 В 2-3
{3}
28 км 3/0
[]
+11.6 +9.3 86 +10 +10 1015.3 1000.8
03 14.06 В 2-3
{3}
27 км ясно +12.3 +9.4 82 +11 +11 1015.2 1000.8
04 14.06 В 1-2
{3}
27 км ясно +10.5 +9.3 92 +10 +10 1015.6 1001.1
05 14.06 В 3-6
{6}
35 км ясно +14.5 +10.3 76 +14 +15 1015.4 1001.1
06 14.06 СВ 2 45 км 5/0
[]
+17.2 +10.6 65 +18 +20 1015.6 1001.4 +10.4 +24.0
07 14.06 В 2-6
{6}
29 км 8/0
[]
+20.4 +12.5 60 +23 +27 комфорт 1015.5 1001.5
08 14.06 ЮЗ 2-3
{6}
55 км 10/0
[]
+20.3 +13.5 65 +23 +28 комфорт 1015.9 1001.9
09 14.06 ЮВ 2 55 км 10/0
[]
+21.2 +14.1 64 +24 +31 комфорт 1016.3 1002.3
10 14.06 ЮЗ 1-2
{4}
55 км 10/0
[]
+22.6 +14.7 61 +26 +36 жарко 1016.1 1002.2
11 14.06 З 1-2
{2}
>70 км 10/0
[]
+23.9 +14.5 56 +27 +37 жарко 1015.8 1001.9
12 14.06 штиль 0-1
{6}
65 км 10/0
[]
+24.4 +14.1 53 +27 +39 жарко 1015.3 1001.5
13 14.06 З 2-3
{3}
>70 км 10/0
[]
+25.0 +16.1 58 +28 +36 жарко 1015.0 1001.2
14 14.06 Ю 1-2
{4}
40 км слаб. дождь {морось} 10/0 2000 м
[]
+24.2 +18.5 70 +29 +36 душно 1014.5 1000.7
15 14.06 Ю 4 60 км слаб. дождь {морось} 10/0 2000 м
[]
+23.4 +14.1 56 +27 +30 душно 1015.1 1001.2 0.0
16 14.06 Ю 2-2
{7}
60 км в посл. час дождь {морось} 9/0
[]
+22.6 +14.8 61 +26 +30 жарко 1014.1 1000.2
17 14.06 СЗ 2-3
{3}
30 км слаб. дождь 9/0
[]
+21.2 +14.9 67 +24 +26 комфорт 1013.7 999.7
18 14.06 Ю 2 40 км в посл. час дождь {морось} 10/0 2000 м
[]
+19.9 +15.9 78 +23 +23 комфорт 1013.7 999.7 +17.2 +25.6 0.1
19 14.06 Ю 1-1
{2}
35 км в посл. час дождь 10/0
[]
+18.2 +16.3 89 +20 +20 1012.8 998.7
20 14.06 В 1-1
{2}
13 км 10/0
[]
+16.9 +15.7 93 +18 +18 1012.4 998.3
21 14.06 В 1 23 км {дождь, дымка} 10/0
[]
+16.0 +15.3 96 +17 +17 1012.4 998.2 0.0
22 14.06 З 1-2
{2}
23 км 10/0
[]
+15.9 +15.3 96 +17 +17 1012.3 998.1
23 14.06 штиль 0-1
{1}
22 км 10/0
[]
+15.7 +15.1 96 +15 +15 1011.3 997.1
00 15.06 Ю 2 16 км {дождь, дымка} 10/0
[]
+15.3 +14.7 96 +15 +15 1009.8 995.6
01 15.06 Ю 1-2
{3}
21 км 10/0
[]
+15.7 +14.9 95 +16 +16 1009.4 995.2
02 15.06 ЮВ 1-1
{1}
8000 м в посл. час туман {дымка} 4/0
[]
+14.6 +14.1 97 +15 +15 1008.3 994.1
03 15.06 ЮВ 1-1
{3}
800 м туман {дымка} ясно +14.1 +13.9 99 +14 +14 1008.2 994.0
04 15.06 ЮЗ 1-1
{2}
9000 м в посл. час туман {дымка} 9/0
[]
+13.9 +13.6 98 +14 +14 1008.5 994.3
05 15.06 ЮЗ 3-6
{7}
26 км ясно +15.5 +14.1 91 +15 +16 1010.0 995.8
06 15.06 ЮЗ 2 30 км {туман, дымка} 5/0
[]
+17.3 +14.2 82 +18 +20 1010.5 996.4 +13.4 +19.9
07 15.06 Ю 3-6
{8}
45 км 9/0
[]
+19.2 +15.0 77 +21 +24 комфорт 1011.5 997.5
08 15.06 ЮЗ 4-8
{8}
45 км 9/9 840 м
[]
+20.8 +14.8 69 +24 +25 комфорт 1012.4 998.4
09 15.06 З 6 60 км 10/10 840 м
[]
+21.7 +14.0 62 +25 +25 комфорт 1012.9 999.0
10 15.06 ЮЗ 6-12
{12}
65 км 6/6 1050 м
[]
+22.7 +13.3 55 +26 +28 жарко 1013.5 999.6
11 15.06 ЮЗ 4-8
{11}
45 км 10/10 1200 м
[]
+22.3 +14.0 59 +25 +25 комфорт 1014.3 1000.4
12 15.06 ЮЗ 3-8
{12}
60 км 6/6 1050 м
[]
+23.7 +14.9 58 +27 +32 жарко 1014.3 1000.4
13 15.06 ЮЗ 4-6
{8}
55 км 9/9 1500 м
[]
+24.2 +12.6 48 +26 +27 жарко 1014.4 1000.6
14 15.06 З 3-6
{9}
65 км 9/9 1500 м
[]
+24.4 +12.3 47 +26 +27 жарко 1014.5 1000.7
15 15.06 З 3 >70 км 6/6 1500 м
[]
+24.5 +12.6 47 +26 +29 жарко 1014.6 1000.8
16 15.06 С 2-4
{7}
55 км 9/9 1500 м
[]
+24.5 +12.6 47 +26 +27 жарко 1014.4 1000.6
17 15.06 З 2-4
{4}
55 км 9/9 1500 м
[]
+25.2 +11.9 43 +27 +27 жарко 1014.4 1000.6
18 15.06 СЗ 3 55 км 6/6 1500 м
[]
+25.0 +11.1 42 +26 +27 жарко 1014.4 1000.6 +17.3 +25.9
19 15.06 З 2-4
{6}
60 км 4/0
[]
+22.3 +11.3 50 +24 +25 комфорт 1014.6 1000.7
20 15.06 С 1-2
{3}
30 км 9/0
[]
+19.0 +12.5 66 +21 +21 комфорт 1015.1 1001.0
21 15.06 ЮВ 1-1
{6}
55 км 3/0
[]
+16.9 +12.7 76 +18 +18 1016.2 1002.0
22 15.06 Ю 1-1
{1}
45 км 6/0
[]
+15.6 +13.1 85 +16 +16 1016.8 1002.5
23 15.06 ЮЗ 1-1
{1}
45 км 10/0
[]
+15.3 +13.2 87 +16 +16 1017.2 1002.9
00 16.06 Ю 1 45 км 10/0
[]
+15.7 +13.2 85 +16 +16 1017.6 1003.3
01 16.06 ЮВ 1-1
{2}
45 км 10/0
[]
+15.8 +13.2 85 +16 +16 1017.7 1003.4
02 16.06 Ю 1-1
{1}
40 км слаб. морось {дождь} 10/0 2000 м
[]
+15.9 +13.5 86 +17 +17 1017.9 1003.6
03 16.06 Ю 2-3
{4}
25 км слаб. дождь {морось} 10/10 1410 м
[]
+16.3 +13.4 83 +16 +16 1018.6 1004.3 0.1
04 16.06 ЮЗ 2-6
{6}
30 км слаб. морось {дождь} 10/0 2000 м
[]
+15.8 +13.4 86 +16 +16 1019.2 1004.9
05 16.06 ЮЗ 2-5
{6}
27 км слаб. дождь {морось} 10/10 1200 м
[]
+15.5 +13.7 89 +15 +15 1019.9 1005.6
06 16.06 ЮЗ 2 30 км слаб. морось {дождь} 10/10 1500 м
[]
+15.5 +14.1 91 +15 +15 1020.3 1006.0 +15.1 +24.8 0.5
07 16.06 ЮЗ 1-2
{3}
15 км слаб. дождь {морось} 10/0
[]
+15.8 +14.4 91 +16 +20 1020.9 1006.6
08 16.06 Ю 1-2
{3}
23 км слаб. дождь 9/0
[]
+16.4 +14.5 89 +17 +24 1021.1 1006.8
09 16.06 ЮЗ 2 29 км слаб. дождь {морось} 10/10 360 м
[]
+17.3 +14.6 84 +18 +18 1021.4 1007.1 1
10 16.06 Ю 2-3
{3}
60 км в посл. час дождь {морось} 10/0
[]
+18.1 +14.5 79 +19 +27 1021.6 1007.4
11 16.06 Ю 2-4
{4}
55 км 10/10 570 м
[]
+18.7 +13.3 71 +20 +20 1021.7 1007.5
12 16.06 З 2-5
{5}
>70 км {дождь, морось} 6/6 1170 м
[]
+20.7 +10.9 53 +23 +30 комфорт 1021.4 1007.3 0.1
13 16.06 ЮВ 2-4
{4}
55 км 9/9 1200 м
[]
+21.5 +11.8 54 +24 +25 комфорт 1020.9 1006.8
14 16.06 СЗ 2-4
{4}
60 км 10/10 1440 м
[]
+21.2 +11.4 54 +23 +23 комфорт 1020.9 1006.8
15 16.06 СВ 2-4
{5}
60 км 6/6 1470 м
[]
+21.2 +12.6 58 +23 +27 комфорт 1020.8 1006.7
16 16.06 ЮВ 2-3
{4}
40 км 4/4 1500 м
[]
+21.8 +12.8 57 +24 +28 комфорт 1020.4 1006.4
17 16.06 ЮЗ 1-2
{4}
65 км 4/4 1500 м
[]
+22.4 +12.2 52 +25 +27 комфорт 1020.4 1006.4
18 16.06 С 2 65 км 8/8 1500 м
[]
+22.4 +12.4 53 +25 +25 комфорт 1020.6 1006.6 +15.4 +23.5
19 16.06 СВ 1-2
{5}
50 км 1/1 1500 м
[]
+20.5 +13.8 65 +24 +24 комфорт 1020.7 1006.6
20 16.06 С 1-1
{3}
50 км ясно +17.8 +14.0 78 +19 +19 1021.2 1007.0
21 16.06 Ю 1-1
{5}
40 км ясно +15.5 +14.0 91 +16 +16 1021.7 1007.3
22 16.06 штиль 0-1
{3}
30 км ясно +14.9 +14.0 94 +15 +15 1021.9 1007.5
23 16.06 штиль 0-1
{2}
22 км ясно +14.0 +13.5 97 +14 +14 1021.9 1007.5
00 17.06 В 1-1
{5}
15 км ясно +13.2 +12.9 98 +13 +13 1022.0 1007.5

 

Местоположение метеостанции Оффенбах (Германия): широта 50.08 долгота 8.78 высота над уровнем моря 119 м.

В архиве по умолчанию представлена погода в Оффенбахе за последнюю неделю. Архивные данные за месяц целиком и за предыдущие месяцы, начиная с января 2011 года, Вы можете получить, выбрав интересующий диапазон дат из раскрывающегося списка и нажав кнопку "Ввод!".


*Определитесь, кто Вы:
робот инопланетянин человек

Внимание! Время в таблицах - всемирное. Для получения местного времени необходимо прибавить поправку, которая равна 1 ч.

Смотрите также архив погоды в соседних городах и на ближайших метеорологических станциях:

Погода во Франкфурте-на-Майне (Германия) (13 км)
Погода на Кляйнер Фельдберг (Германия) (28 км)
Погода в Михельштадте (Германия) (46 км)
Погода в Нойхюттене (Германия) (46 км)
Погода в Гисене (Германия) (56 км)
Погода на Хоэродскопфе (Германия) (58 км)
Погода в Гайзенхайме (Германия) (60 км)
Погода в Мангейме (Германия) (64 км)
Погода на Станции Neu-Ulrichstein (Германия) (76 км)
Погода в Вайбштадте (Германия) (87 км)

Пояснения к столбцам:

Ветер - указаны скорость ветра в м/с - средняя за 10 мин, порывы в срок и между сроками (в фигурных скобках) и направление, откуда дует ветер: С - северный, СВ - северо-восточный, В - восточный, ЮВ - юго-восточный, Ю - южный, ЮЗ - юго-западный, З - западный, СЗ - северо-западный.
Видимость - горизонтальная дальность видимости в метрах или километрах. При видимости от 1 до 10 км при отсутствии осадков обычно наблюдается дымка, при ухудшении видимости до 1 км и менее - туман. В сухую погоду видимость может ухудшаться дымом, пылью или мглою.
Явления - указаны атмосферные явления, наблюдавшиеся в срок или в последний час перед сроком; фигурными скобками обозначены явления, наблюдавшиеся между сроками (за 1-3 часа до срока); квадратными скобками обозначены град или гололедные отложения с указанием их диаметра в мм.
Облачность - указаны через наклонную черту общая и нижняя облачность в баллах и высота нижней границы облаков в метрах; квадратными скобками обозначены формы облаков: Ci - перистые, Cs - перисто-слоистые, Cc - перисто-кучевые, Ac - высококучевые, As - высокослоистые, Sc - слоисто-кучевые, Ns - слоисто-дождевые, Cu - кучевые, Cb - кучево-дождевые. Подробнее классификацию облаков см. в Атласе облаков (PDF).
T - Температура воздуха - температура, измеренная на высоте 2 м над землей.
Td - Температура точки росы - температура, при понижении до которой содержащийся в воздухе водяной пар достигнет насыщения.
f - Относительная влажность воздуха - влажноcть воздуха, измеренная на высоте 2 м над землей.
Te - Эффективная температура - температура, которую ощущает одетый по сезону человек в тени. Характеристика душности погоды. При расчете учитывается влияние влажности воздуха и скорости ветра на теплоощущения человека.
Tes - Эффективная температура на солнце - температура, которую ощущает человек, с поправкой на солнечный нагрев. Характеристика знойности погоды. Зависит от высоты солнца над горизонтом, облачности и скорости ветра. Ночью, в пасмурную погоду, а также при ветре 12 м/с и более поправка равна нулю.
P - Атмосферное давление - приведенное к уровню моря атмосферное давление.
Po - Атмосферное давление - измеренное на уровне метеостанции атмосферное давление.
Tmin - Минимальная температура - минимум температуры воздуха на высоте 2 м над землей.
Tmax - Максимальная температура - максимум температуры воздуха на высоте 2 м над землей.
R - Количество осадков - Количество выпавших осадков за период времени, мм. При наведении курсора мыши на число - период времени, за который выпало указанное количество осадков.
R24 - Количество осадков - Количество выпавших осадков за 24 часа, мм.
S - Снежный покров - Высота снежного покрова, см. При наведении курсора мыши на число - состояние снежного покрова и степень покрытия местности в баллах.